SCP
0 0 0 0 0 0 0 0 0 0 0 0 0 0 0 0 0 0 0 0 0 0 0 0 0 0 0 0 0 0 0 0 0 0 -0 -0 -0 -0
0 0 0 0 0 0 0 0 0 0 0 0 0 0 0 0 0 0 0 0 0 0 0 0 0 0 0 0 0 0 0 0 0 0 0 0 0 0
0 0 0 0 0 1 1 0 0 1 0 0 0 0 0 0 0 0 0 0 0 0 0 0 0 0 0 0 0 0 0 0 0 0 0 0 0 0
0 0 0 0 0 0 1 0 0 0 0 0 0 0 0 0 0 0 0 0 0 0 0 0 0 0 0 0 0 0 0 0 0 0 0 0 0 0
0 0 0 0 0 0 1 1 0 0 0 0 0 0 0 0 0 0 0 0 0 0 0 0 0 0 0 0 0 0 0 0 0 0 0 0 0 0
0 0 0 0 0 0 0 0 0 0 0 0 0 0 0 0 0 0 0 0 0 0 0 0 0 0 0 0 0 0 0 0 0 0 0 0 0 0
0 0 0 0 0 0 0 0 0 0 0 0 0 0 0 0 0 0 0 0 0 0 0 0 0 0 0 0 0 0 0 0 0 0 0 0 0 0
0 0 0 0 0 0 0 0 0 0 0 0 0 0 0 0 0 0 0 0 0 0 0 0 0 0 0 0 0 0 0 0 0 0 0 0 0 0
0 0 0 0 0 0 0 0 0 0 0 0 0 0 0 0 0 0 0 0 0 0 0 0 0 0 0 0 0 0 0 0 0 0 0 0 0 0
0 0 0 0 0 0 0 0 0 0 0 0 0 0 0 0 0 0 0 0 0 0 0 0 0 0 0 0 0 0 0 0 0 0 0 0 0 0
0 0 0 0 0 0 0 0 0 0 0 0 0 0 0 0 0 0 0 0 0 0 0 0 0 0 0 0 0 0 0 0 0 0 0 0 0 0
0 0 -0 0 0 0 0 0 0 0 0 0 0 0 0 0 0 0 0 0 0 0 0 0 0 0 0 0 0 0 0 0 0 0 0 0 0 0
-0 0 0 0 0 0 0 0 0 0 0 0 0 0 0 0 0 0 0 0 0 0 0 0 0 0 0 0 0 0 0 0 0 0 0 0 0 0
0 -0 0 0 0 0 0 0 0 0 0 0 0 0 0 0 0 0 0 0 0 0 0 0 0 0 0 0 0 0 0 0 0 0 0 0 0 0
-0 -0 -0 -0 -0 0 0 0 0 0 0 0 0 0 0 0 0 0 0 0 0 0 0 0 0 0 0 0 0 0 0 0 0 0 0 0 0 0
-0 0 -0 0 -0 -0 0 0 0 0 0 0 0 0 0 0 0 0 0 0 0 0 0 0 0 0 0 0 0 0 0 0 0 0 0 0 0 0
-0 -0 0 0 0 0 0 0 0 0 0 0 0 0 0 0 0 0 0 0 0 0 0 0 0 0 0 0 0 0 0 0 0 0 0 0 0 0
-0 -0 -0 -0 -0 0 0 0 0 0 0 0 0 0 0 0 0 0 0 0 0 0 0 0 0 0 0 0 0 0 0 0 0 0 0 0 0 0
-0 -0 -0 -0 -0 -0 -0 -0 0 0 0 0 -0 0 0 0 0 -0 0 0 0 0 0 0 0 0 0 0 0 0 0 0 0 0 0 0 0 0
-0 -0 -0 -0 -0 -0 -0 -0 -0 -0 -0 -0 0 0 0 0 0 0 0 0 0 0 0 0 0 0 0 0 0 0 0 0 0 0 0 0 0 0
0 0 0 -0 -0 -0 -0 -0 -0 -0 -0 -0 -0 -0 -0 0 0 0 0 0 0 0 0 0 0 0 0 0 0 0 0 0 0 0 0 0 0 0
0 0 0 0 0 -0 -0 -0 -0 -0 0 0 0 -0 -0 -0 -0 0 0 0 0 0 0 0 0 0 0 0 0 0 0 0 0 0 0 0 0 0
0 0 0 0 -0 -0 -0 -0 -0 -0 -0 0 0 0 0 0 0 -0 -0 0 0 0 0 0 0 0 0 0 0 0 0 0 0 0 0 0 0 0
Wind_Speed_500mb
79 80 114 99 114 126 114 105 97 63 74 75 71 61 55 61 63 60 63 58 57 56 55 63 64 63 62 62 59 61 64 65 68 68 65 62 74 78
74 73 91 116 110 118 82 97 111 101 74 78 74 67 56 65 62 56 59 60 61 58 52 56 61 68 71 68 66 60 62 59 68 72 71 71 74 81
86 81 74 80 95 104 82 98 111 110 95 89 75 70 63 63 61 54 53 60 66 65 62 59 53 57 70 75 69 66 66 69 64 74 76 75 73 80
71 86 95 95 90 106 103 80 101 117 103 101 92 89 77 69 60 47 53 49 52 57 54 47 49 52 56 62 69 72 71 69 67 67 72 75 79 80
76 75 75 81 82 107 108 106 106 104 101 103 90 82 75 71 66 55 59 65 60 62 66 61 59 56 56 66 71 71 74 77 73 69 72 74 82 81
59 67 67 74 77 83 79 85 101 98 90 88 85 76 73 70 67 62 66 69 75 72 71 70 69 67 65 66 71 71 74 79 80 76 73 73 78 84
20 21 30 51 78 62 74 79 94 96 83 84 82 73 70 68 66 61 55 57 61 64 68 74 75 68 65 64 70 76 76 77 83 81 76 71 74 78
37 30 20 10 24 48 77 78 75 81 77 77 72 69 62 58 58 61 58 56 59 62 66 68 64 66 69 74 82 81 75 75 80 82 81 77 75 80
56 46 41 33 21 6 10 44 63 71 63 67 69 69 67 55 59 53 45 42 53 64 64 70 71 67 61 61 66 64 72 79 78 76 81 77 72 72
59 61 54 46 36 26 19 10 2 17 29 49 51 59 65 62 57 56 59 63 64 61 60 75 81 78 64 58 58 61 60 69 70 69 73 73 73 75
65 64 63 59 49 34 26 21 18 13 9 1 13 27 30 34 37 45 52 62 76 84 82 87 87 90 86 74 60 63 65 63 72 74 79 82 81 79
71 72 71 66 59 46 37 33 28 26 15 7 5 5 17 21 11 28 41 54 64 73 75 72 82 79 86 80 69 64 71 66 67 68 75 80 78 83
74 75 74 65 55 50 50 47 43 33 22 16 12 7 9 9 9 27 29 45 59 70 53 52 58 52 65 65 65 62 60 53 55 64 65 73 79 82
75 72 69 64 62 61 59 51 39 34 31 30 28 30 26 21 16 16 21 35 46 54 55 38 59 69 73 85 76 74 71 72 74 64 66 68 70 69
66 63 61 61 62 67 73 71 66 63 55 54 54 48 41 37 33 23 19 26 28 32 34 44 57 66 65 76 70 73 74 79 77 66 63 68 63 71
58 56 56 60 68 73 73 73 70 68 69 70 64 56 50 46 43 39 36 34 25 24 23 32 40 47 62 67 70 80 78 75 71 75 67 65 68 66
56 58 63 71 76 78 77 74 71 71 76 75 70 67 66 62 61 55 53 52 50 48 40 30 33 41 51 58 63 73 73 76 78 80 78 78 74 70
60 68 74 78 81 79 79 76 76 78 77 72 71 71 70 70 69 66 62 59 56 51 50 46 42 39 41 41 46 56 61 67 68 73 74 77 79 75
67 73 74 75 75 74 74 75 74 71 68 68 69 69 69 67 70 71 69 67 65 63 55 49 46 39 39 40 42 47 46 47 48 56 63 64 70 71
66 68 69 72 73 70 71 70 68 67 66 65 64 64 66 69 70 70 71 71 68 65 63 55 45 42 38 41 47 50 50 48 44 44 50 51 54 50
60 60 61 61 62 63 63 64 65 65 66 64 61 60 61 62 64 65 65 65 65 64 64 61 56 46 41 36 38 36 34 34 34 35 38 41 43 39
61 61 59 56 57 58 59 59 61 63 61 61 62 62 59 58 60 62 63 66 63 60 57 56 56 48 37 32 36 33 21 20 21 20 29 39 31 37
55 56 60 61 62 60 57 57 58 59 61 61 61 62 61 59 55 56 58 58 57 59 57 58 55 44 36 26 18 11 10 12 13 21 27 28 30 36
Wind_Direction_500mb
242 243 234 232 245 246 233 235 231 226 232 233 238 240 240 237 238 249 251 252 246 243 244 245 246 244 244 245 247 244 244 246 249 250 250 250 242 237
247 248 246 228 226 238 255 239 237 235 232 240 240 243 248 243 245 250 246 245 239 238 253 254 248 247 246 245 244 246 246 246 244 247 247 244 247 239
251 247 252 241 241 239 242 238 243 238 237 242 241 245 249 244 238 243 243 240 238 239 244 250 252 250 244 243 243 245 246 247 246 244 246 246 246 242
253 255 252 245 247 233 227 244 241 245 241 242 245 246 249 243 237 244 234 237 236 236 238 242 249 250 256 254 249 246 246 248 250 249 244 242 245 248
257 248 246 246 236 229 232 229 240 241 245 240 241 244 247 245 243 240 238 238 239 239 243 248 253 257 258 252 248 246 246 247 248 252 252 243 244 249
247 245 236 232 224 227 220 220 228 236 242 234 234 235 238 242 245 244 244 240 240 245 252 257 259 260 263 257 249 247 247 246 247 248 252 250 246 250
60 194 201 218 218 217 209 228 228 230 236 230 229 231 232 236 245 246 242 247 248 247 255 259 262 263 260 254 250 252 251 247 245 248 251 252 253 247
56 59 88 123 190 210 209 199 208 213 221 224 224 227 232 239 246 248 253 253 256 254 263 259 259 263 263 262 257 256 251 251 252 248 250 252 253 250
41 46 54 72 87 85 190 212 213 216 208 214 213 214 222 208 211 213 221 237 258 262 264 266 269 267 263 261 258 253 250 249 248 249 254 255 260 261
39 37 40 50 64 67 74 66 60 174 197 197 211 217 222 225 234 246 245 252 253 254 261 264 264 266 267 263 256 253 253 248 240 245 251 255 258 259
36 39 33 35 39 55 66 74 71 63 353 283 233 233 239 232 233 247 263 271 272 264 250 255 261 269 268 265 260 259 261 257 241 244 249 252 256 259
37 35 35 32 28 36 50 54 47 29 40 16 321 174 214 223 247 254 258 267 268 277 267 258 263 263 272 267 257 256 263 256 250 255 255 251 252 255
40 39 36 31 28 29 37 40 35 23 24 31 25 9 334 359 250 245 258 261 263 258 257 258 261 256 265 255 266 265 271 268 257 257 265 256 255 257
39 41 41 40 38 42 45 42 35 34 30 33 18 16 13 357 324 289 260 256 258 263 258 242 254 257 258 267 265 265 263 263 266 264 266 262 256 257
39 40 39 37 40 41 42 39 36 37 37 44 39 32 22 10 352 339 310 290 280 271 256 248 253 252 255 257 260 266 267 269 270 264 272 261 265 264
34 38 40 42 44 43 41 39 39 37 36 39 37 31 28 24 16 9 357 344 322 291 273 257 253 256 250 258 264 262 262 263 261 265 265 266 265 270
31 32 30 30 32 35 35 34 31 29 30 31 29 27 24 21 20 18 14 7 360 345 327 301 279 265 257 260 260 260 261 260 260 261 261 266 265 267
29 34 34 32 32 29 26 26 24 25 24 23 22 21 20 18 16 16 15 14 7 359 349 337 322 300 281 272 268 265 268 270 264 261 261 261 262 264
27 30 30 30 30 27 25 24 22 22 19 18 17 17 15 15 13 11 10 8 4 0 359 353 345 334 316 302 286 285 283 275 276 272 264 260 261 263
24 24 23 22 22 21 20 20 19 17 18 17 16 14 12 11 10 8 7 5 1 358 356 354 349 338 328 314 300 283 288 288 281 273 269 261 256 256
22 20 19 18 15 13 15 15 13 15 14 14 14 14 12 8 7 5 2 2 359 357 353 351 345 334 318 310 300 298 294 281 272 269 265 251 244 240
10 10 11 10 10 9 9 9 8 7 9 9 10 10 9 8 5 3 360 357 356 356 352 351 349 344 336 322 305 301 280 268 253 240 238 237 220 203
0 1 -0 359 0 2 3 4 3 4 3 4 5 5 4 2 3 1 359 356 353 352 352 351 352 352 344 331 313 279 222 211 204 195 205 231 250 252
Wind_Speed_850mb
79 80 114 99 114 126 114 105 97 63 74 75 71 61 55 61 63 60 63 58 57 56 55 63 64 63 62 62 59 61 64 65 68 68 65 62 74 78
74 73 91 116 110 118 82 97 111 101 74 78 74 67 56 65 62 56 59 60 61 58 52 56 61 68 71 68 66 60 62 59 68 72 71 71 74 81
86 81 74 80 95 104 82 98 111 110 95 89 75 70 63 63 61 54 53 60 66 65 62 59 53 57 70 75 69 66 66 69 64 74 76 75 73 80
71 86 95 95 90 106 103 80 101 117 103 101 92 89 77 69 60 47 53 49 52 57 54 47 49 52 56 62 69 72 71 69 67 67 72 75 79 80
76 75 75 81 82 107 108 106 106 104 101 103 90 82 75 71 66 55 59 65 60 62 66 61 59 56 56 66 71 71 74 77 73 69 72 74 82 81
59 67 67 74 77 83 79 85 101 98 90 88 85 76 73 70 67 62 66 69 75 72 71 70 69 67 65 66 71 71 74 79 80 76 73 73 78 84
20 21 30 51 78 62 74 79 94 96 83 84 82 73 70 68 66 61 55 57 61 64 68 74 75 68 65 64 70 76 76 77 83 81 76 71 74 78
37 30 20 10 24 48 77 78 75 81 77 77 72 69 62 58 58 61 58 56 59 62 66 68 64 66 69 74 82 81 75 75 80 82 81 77 75 80
56 46 41 33 21 6 10 44 63 71 63 67 69 69 67 55 59 53 45 42 53 64 64 70 71 67 61 61 66 64 72 79 78 76 81 77 72 72
59 61 54 46 36 26 19 10 2 17 29 49 51 59 65 62 57 56 59 63 64 61 60 75 81 78 64 58 58 61 60 69 70 69 73 73 73 75
65 64 63 59 49 34 26 21 18 13 9 1 13 27 30 34 37 45 52 62 76 84 82 87 87 90 86 74 60 63 65 63 72 74 79 82 81 79
71 72 71 66 59 46 37 33 28 26 15 7 5 5 17 21 11 28 41 54 64 73 75 72 82 79 86 80 69 64 71 66 67 68 75 80 78 83
74 75 74 65 55 50 50 47 43 33 22 16 12 7 9 9 9 27 29 45 59 70 53 52 58 52 65 65 65 62 60 53 55 64 65 73 79 82
75 72 69 64 62 61 59 51 39 34 31 30 28 30 26 21 16 16 21 35 46 54 55 38 59 69 73 85 76 74 71 72 74 64 66 68 70 69
66 63 61 61 62 67 73 71 66 63 55 54 54 48 41 37 33 23 19 26 28 32 34 44 57 66 65 76 70 73 74 79 77 66 63 68 63 71
58 56 56 60 68 73 73 73 70 68 69 70 64 56 50 46 43 39 36 34 25 24 23 32 40 47 62 67 70 80 78 75 71 75 67 65 68 66
56 58 63 71 76 78 77 74 71 71 76 75 70 67 66 62 61 55 53 52 50 48 40 30 33 41 51 58 63 73 73 76 78 80 78 78 74 70
60 68 74 78 81 79 79 76 76 78 77 72 71 71 70 70 69 66 62 59 56 51 50 46 42 39 41 41 46 56 61 67 68 73 74 77 79 75
67 73 74 75 75 74 74 75 74 71 68 68 69 69 69 67 70 71 69 67 65 63 55 49 46 39 39 40 42 47 46 47 48 56 63 64 70 71
66 68 69 72 73 70 71 70 68 67 66 65 64 64 66 69 70 70 71 71 68 65 63 55 45 42 38 41 47 50 50 48 44 44 50 51 54 50
60 60 61 61 62 63 63 64 65 65 66 64 61 60 61 62 64 65 65 65 65 64 64 61 56 46 41 36 38 36 34 34 34 35 38 41 43 39
61 61 59 56 57 58 59 59 61 63 61 61 62 62 59 58 60 62 63 66 63 60 57 56 56 48 37 32 36 33 21 20 21 20 29 39 31 37
55 56 60 61 62 60 57 57 58 59 61 61 61 62 61 59 55 56 58 58 57 59 57 58 55 44 36 26 18 11 10 12 13 21 27 28 30 36
Wind_Direction_850mb
242 243 234 232 245 246 233 235 231 226 232 233 238 240 240 237 238 249 251 252 246 243 244 245 246 244 244 245 247 244 244 246 249 250 250 250 242 237
247 248 246 228 226 238 255 239 237 235 232 240 240 243 248 243 245 250 246 245 239 238 253 254 248 247 246 245 244 246 246 246 244 247 247 244 247 239
251 247 252 241 241 239 242 238 243 238 237 242 241 245 249 244 238 243 243 240 238 239 244 250 252 250 244 243 243 245 246 247 246 244 246 246 246 242
253 255 252 245 247 233 227 244 241 245 241 242 245 246 249 243 237 244 234 237 236 236 238 242 249 250 256 254 249 246 246 248 250 249 244 242 245 248
257 248 246 246 236 229 232 229 240 241 245 240 241 244 247 245 243 240 238 238 239 239 243 248 253 257 258 252 248 246 246 247 248 252 252 243 244 249
247 245 236 232 224 227 220 220 228 236 242 234 234 235 238 242 245 244 244 240 240 245 252 257 259 260 263 257 249 247 247 246 247 248 252 250 246 250
60 194 201 218 218 217 209 228 228 230 236 230 229 231 232 236 245 246 242 247 248 247 255 259 262 263 260 254 250 252 251 247 245 248 251 252 253 247
56 59 88 123 190 210 209 199 208 213 221 224 224 227 232 239 246 248 253 253 256 254 263 259 259 263 263 262 257 256 251 251 252 248 250 252 253 250
41 46 54 72 87 85 190 212 213 216 208 214 213 214 222 208 211 213 221 237 258 262 264 266 269 267 263 261 258 253 250 249 248 249 254 255 260 261
39 37 40 50 64 67 74 66 60 174 197 197 211 217 222 225 234 246 245 252 253 254 261 264 264 266 267 263 256 253 253 248 240 245 251 255 258 259
36 39 33 35 39 55 66 74 71 63 353 283 233 233 239 232 233 247 263 271 272 264 250 255 261 269 268 265 260 259 261 257 241 244 249 252 256 259
37 35 35 32 28 36 50 54 47 29 40 16 321 174 214 223 247 254 258 267 268 277 267 258 263 263 272 267 257 256 263 256 250 255 255 251 252 255
40 39 36 31 28 29 37 40 35 23 24 31 25 9 334 359 250 245 258 261 263 258 257 258 261 256 265 255 266 265 271 268 257 257 265 256 255 257
39 41 41 40 38 42 45 42 35 34 30 33 18 16 13 357 324 289 260 256 258 263 258 242 254 257 258 267 265 265 263 263 266 264 266 262 256 257
39 40 39 37 40 41 42 39 36 37 37 44 39 32 22 10 352 339 310 290 280 271 256 248 253 252 255 257 260 266 267 269 270 264 272 261 265 264
34 38 40 42 44 43 41 39 39 37 36 39 37 31 28 24 16 9 357 344 322 291 273 257 253 256 250 258 264 262 262 263 261 265 265 266 265 270
31 32 30 30 32 35 35 34 31 29 30 31 29 27 24 21 20 18 14 7 360 345 327 301 279 265 257 260 260 260 261 260 260 261 261 266 265 267
29 34 34 32 32 29 26 26 24 25 24 23 22 21 20 18 16 16 15 14 7 359 349 337 322 300 281 272 268 265 268 270 264 261 261 261 262 264
27 30 30 30 30 27 25 24 22 22 19 18 17 17 15 15 13 11 10 8 4 0 359 353 345 334 316 302 286 285 283 275 276 272 264 260 261 263
24 24 23 22 22 21 20 20 19 17 18 17 16 14 12 11 10 8 7 5 1 358 356 354 349 338 328 314 300 283 288 288 281 273 269 261 256 256
22 20 19 18 15 13 15 15 13 15 14 14 14 14 12 8 7 5 2 2 359 357 353 351 345 334 318 310 300 298 294 281 272 269 265 251 244 240
10 10 11 10 10 9 9 9 8 7 9 9 10 10 9 8 5 3 360 357 356 356 352 351 349 344 336 322 305 301 280 268 253 240 238 237 220 203
0 1 -0 359 0 2 3 4 3 4 3 4 5 5 4 2 3 1 359 356 353 352 352 351 352 352 344 331 313 279 222 211 204 195 205 231 250 252